Metropolis, IL

3:19 AM CST on January 22, 2018 (GMT -0600)
Metropolis

Weather History for KM30 - November, 2012

Change the Weather History Date:

Thursday, November 29, 2012

  Actual Average (KPAH) Record (KPAH)
Temperature  
Mean Temperature 41 °F -  
Max Temperature 57 °F 50 °F 73 °F (1998)
Min Temperature 25 °F 34 °F 13 °F (1976)
Degree Days  
Heating Degree Days 24    
Moisture  
Dew Point 29 °F    
Average Humidity 67    
Maximum Humidity 100    
Minimum Humidity 34    
Precipitation  
Precipitation 0.00 in - - ()
Sea Level Pressure  
Sea Level Pressure 30.29 in    
Wind  
Wind Speed 3 mph (South)    
Max Wind Speed 14 mph    
Max Gust Speed 17 mph    
Visibility 9 miles    
Events      
Averages and records for this station are not official NWS values.
T = Trace of Precipitation, MM = Missing Value Source: NWS Daily Summary

Daily Weather History Graph

Daily Weather History Graph

Search for Another Location

Airport or City:

Trip Planner

Search our weather history database for the weather conditions in past years. The results will help you decide how hot, cold, wet, or windy it might be!

Date:

Astronomy

Nov. 29, 2012 Rise Set
Actual Time 6:48 AM CST 4:38 PM CST
Civil Twilight 6:20 AM CST 5:06 PM CST
Nautical Twilight 5:47 AM CST 5:38 PM CST
Astronomical Twilight 5:16 AM CST 6:10 PM CST
Moon 5:41 PM CST (11/29) 7:35 AM CST (11/29)
Length of Visible Light 10h 46m
Length of Day
9h 49m
Full, 99% of the Moon is Illuminated
Nov 29
Full
Dec 6
Last Quarter
Dec 13
New
Dec 19
First Quarter
Dec 28
Full

Hourly Weather History & Observations

Time (CST) Temp. Windchill Dew Point Humidity Pressure Visibility Wind Dir Wind Speed Gust Speed Precip Events Conditions
12:15 AM 28.0 °F - 28.0 °F 100% 30.36 in 10.0 mi Calm Calm - N/A   Clear
12:35 AM 26.6 °F - 26.6 °F 100% 30.36 in 10.0 mi Calm Calm - N/A   Clear
12:55 AM 26.6 °F - 26.6 °F 100% 30.35 in 7.0 mi Calm Calm - N/A   Clear
1:15 AM 27.1 °F - 27.1 °F 100% 30.34 in 10.0 mi Calm Calm - N/A   Clear
1:35 AM 26.6 °F - 26.6 °F 100% 30.35 in 10.0 mi Calm Calm - N/A   Clear
1:55 AM 26.6 °F - 26.6 °F 100% 30.35 in 10.0 mi Calm Calm - N/A   Clear
2:15 AM 25.7 °F - 25.7 °F 100% 30.35 in 10.0 mi Calm Calm - N/A   Clear
2:35 AM 25.7 °F - 25.7 °F 100% 30.35 in 7.0 mi Calm Calm - N/A   Clear
2:55 AM 25.7 °F - 25.7 °F 100% 30.34 in 7.0 mi Calm Calm - N/A   Clear
3:15 AM 25.9 °F - 25.9 °F 100% 30.34 in 5.0 mi Calm Calm - N/A   Clear
3:35 AM 26.1 °F - 26.1 °F 100% 30.34 in 5.0 mi Calm Calm - N/A   Clear
3:55 AM 26.2 °F - 26.2 °F 100% 30.34 in 5.0 mi Calm Calm - N/A   Clear
4:15 AM 26.4 °F - 26.4 °F 100% 30.34 in 5.0 mi Calm Calm - N/A   Clear
4:35 AM 26.4 °F - 26.4 °F 100% 30.34 in 5.0 mi Calm Calm - N/A   Clear
4:55 AM 27.5 °F - 27.5 °F 100% 30.35 in 5.0 mi Calm Calm - N/A   Clear
5:15 AM 27.3 °F - 27.3 °F 100% 30.35 in 5.0 mi Calm Calm - N/A   Clear
5:35 AM 27.3 °F - 27.3 °F 100% 30.36 in 5.0 mi Calm Calm - N/A   Clear
5:55 AM 27.5 °F - 27.5 °F 100% 30.35 in 4.0 mi Calm Calm - N/A   Clear
6:15 AM 27.5 °F - 27.5 °F 100% 30.36 in 4.0 mi Calm Calm - N/A   Clear
6:35 AM 27.7 °F - 27.7 °F 100% 30.36 in 5.0 mi Calm Calm - N/A   Clear
6:55 AM 27.3 °F - 27.3 °F 100% 30.36 in 4.0 mi Calm Calm - N/A   Clear
7:15 AM 27.5 °F - 27.5 °F 100% 30.36 in 4.0 mi Calm Calm - N/A   Clear
7:35 AM 29.8 °F - 29.8 °F 100% 30.36 in 4.0 mi Calm Calm - N/A   Clear
7:55 AM 31.8 °F - 31.8 °F 100% 30.37 in 4.0 mi Calm Calm - N/A   Clear
8:15 AM 32.4 °F - 32.4 °F 100% 30.36 in 5.0 mi Calm Calm - N/A   Clear
8:35 AM 35.8 °F - 34.5 °F 95% 30.36 in 10.0 mi Calm Calm - N/A   Clear
8:55 AM 39.0 °F - 32.9 °F 79% 30.36 in 10.0 mi Calm Calm - N/A   Clear
9:15 AM 41.9 °F 39.0 °F 32.0 °F 68% 30.36 in 10.0 mi South 4.6 mph - N/A   Clear
9:35 AM 45.1 °F 41.4 °F 32.2 °F 60% 30.35 in 10.0 mi South 6.9 mph - N/A   Clear
9:55 AM 47.3 °F - 31.8 °F 55% 30.34 in 10.0 mi South 8.1 mph - N/A   Clear
10:15 AM 48.2 °F - 31.3 °F 52% 30.34 in 10.0 mi SSW 10.4 mph - N/A   Clear
10:35 AM 49.6 °F - 31.8 °F 50% 30.33 in 10.0 mi South 10.4 mph - N/A   Clear
10:55 AM 51.6 °F - 32.0 °F 47% 30.33 in 10.0 mi South 8.1 mph - N/A   Clear
11:15 AM 52.3 °F - 31.8 °F 46% 30.31 in 10.0 mi SSW 9.2 mph - N/A   Clear
11:35 AM 53.6 °F - 31.8 °F 44% 30.30 in 10.0 mi South 11.5 mph - N/A   Clear
11:55 AM 54.7 °F - 31.8 °F 42% 30.29 in 10.0 mi SSW 12.7 mph - N/A   Clear
12:15 PM 55.0 °F - 31.1 °F 40% 30.28 in 10.0 mi South 12.7 mph 16.1 mph N/A   Clear
12:35 PM 55.8 °F - 30.9 °F 39% 30.27 in 10.0 mi South 11.5 mph - N/A   Clear
12:55 PM 56.3 °F - 31.1 °F 38% 30.26 in 10.0 mi SSW 9.2 mph - N/A   Clear
1:15 PM 57.2 °F - 30.6 °F 36% 30.25 in 10.0 mi SSW 13.8 mph - N/A   Clear
1:35 PM 57.2 °F - 29.7 °F 35% 30.24 in 10.0 mi South 9.2 mph - N/A   Clear
1:55 PM 57.7 °F - 29.1 °F 34% 30.24 in 10.0 mi South 10.4 mph - N/A   Clear
2:15 PM 57.6 °F - 29.1 °F 34% 30.23 in 10.0 mi South 10.4 mph - N/A   Clear
2:35 PM 56.8 °F - 28.8 °F 34% 30.22 in 10.0 mi South 10.4 mph - N/A   Clear
2:55 PM 56.3 °F - 28.0 °F 34% 30.22 in 10.0 mi South 11.5 mph 17.3 mph N/A   Clear
3:15 PM 55.8 °F - 28.8 °F 36% 30.22 in 10.0 mi South 6.9 mph - N/A   Clear
3:35 PM 55.4 °F - 29.3 °F 37% 30.22 in 10.0 mi South 9.2 mph - N/A   Clear
3:55 PM 54.9 °F - 29.3 °F 38% 30.22 in 10.0 mi South 5.8 mph - N/A   Clear
4:15 PM 53.6 °F - 30.2 °F 41% 30.22 in 10.0 mi South 5.8 mph - N/A   Clear
4:35 PM 53.2 °F - 29.8 °F 41% 30.22 in 10.0 mi South 5.8 mph - N/A   Clear
4:55 PM 52.2 °F - 29.5 °F 42% 30.22 in 10.0 mi South 4.6 mph - N/A   Clear
5:15 PM 51.1 °F - 29.8 °F 44% 30.22 in 10.0 mi South 5.8 mph - N/A   Clear
5:35 PM 51.1 °F - 29.7 °F 44% 30.22 in 10.0 mi South 5.8 mph - N/A   Clear
5:55 PM 50.4 °F - 29.3 °F 44% 30.23 in 10.0 mi South 3.5 mph - N/A   Clear
6:15 PM 50.0 °F - 29.1 °F 45% 30.23 in 10.0 mi South 4.6 mph - N/A   Clear
6:55 PM 48.7 °F - 28.4 °F 45% 30.23 in 10.0 mi South 3.5 mph - N/A   Clear
7:15 PM 48.2 °F - 28.6 °F 47% 30.23 in 10.0 mi SSE 3.5 mph - N/A   Clear
7:35 PM 48.2 °F - 28.4 °F 46% 30.23 in 10.0 mi SSE 3.5 mph - N/A   Clear
7:55 PM 46.9 °F - 28.4 °F 49% 30.23 in 10.0 mi South 4.6 mph - N/A   Clear
8:15 PM 47.7 °F - 28.8 °F 48% 30.23 in 10.0 mi South 4.6 mph - N/A   Clear
8:35 PM 47.3 °F - 28.9 °F 49% 30.23 in 10.0 mi South 4.6 mph - N/A   Clear
8:55 PM 45.5 °F 44.2 °F 29.1 °F 53% 30.23 in 10.0 mi SSE 3.5 mph - N/A   Clear
9:15 PM 44.6 °F - 29.1 °F 55% 30.23 in 10.0 mi Calm Calm - N/A   Clear
9:35 PM 44.6 °F - 28.9 °F 54% 30.24 in 10.0 mi Calm Calm - N/A   Clear
9:55 PM 44.6 °F - 28.9 °F 54% 30.24 in 10.0 mi Calm Calm - N/A   Clear
10:15 PM 43.2 °F - 28.9 °F 57% 30.23 in 10.0 mi Calm Calm - N/A   Clear
10:35 PM 44.4 °F - 28.9 °F 55% 30.23 in 10.0 mi Calm Calm - N/A   Clear
10:55 PM 43.2 °F - 29.3 °F 58% 30.23 in 10.0 mi Calm Calm - N/A   Clear
11:15 PM 40.6 °F - 29.7 °F 65% 30.23 in 10.0 mi Calm Calm - N/A   Clear
11:35 PM 42.4 °F - 30.4 °F 62% 30.23 in 10.0 mi Calm Calm - N/A   Clear
11:55 PM 41.0 °F - 30.7 °F 67% 30.23 in 10.0 mi Calm Calm - N/A   Clear